Year,Month,Day,Hour,Minute,Value (Times are PST for temperature in C)
2018,10,20,00,00,6.60
2018,10,20,00,01,6.60
2018,10,20,00,02,6.60
2018,10,20,00,03,6.60
2018,10,20,00,04,6.50
2018,10,20,00,05,6.50
2018,10,20,00,06,6.40
2018,10,20,00,07,6.40
2018,10,20,00,08,6.40
2018,10,20,00,09,6.40
2018,10,20,00,10,6.40
2018,10,20,00,11,6.30
2018,10,20,00,12,6.30
2018,10,20,00,13,6.30
2018,10,20,00,14,6.30
2018,10,20,00,15,6.30
2018,10,20,00,16,6.30
2018,10,20,00,17,6.30
2018,10,20,00,18,6.20
2018,10,20,00,19,6.20
2018,10,20,00,20,6.20
2018,10,20,00,21,6.20
2018,10,20,00,22,6.20
2018,10,20,00,23,6.20
2018,10,20,00,24,6.20
2018,10,20,00,25,6.20
2018,10,20,00,26,6.20
2018,10,20,00,27,6.20
2018,10,20,00,28,6.20
2018,10,20,00,29,6.20
2018,10,20,00,30,6.20
2018,10,20,00,31,6.10
2018,10,20,00,32,6.10
2018,10,20,00,33,6.10
2018,10,20,00,34,6.10
2018,10,20,00,35,6.10
2018,10,20,00,36,6.00
2018,10,20,00,37,6.00
2018,10,20,00,38,6.00
2018,10,20,00,39,6.00
2018,10,20,00,40,6.00
2018,10,20,00,41,5.90
2018,10,20,00,42,5.90
2018,10,20,00,43,5.90
2018,10,20,00,44,5.90
2018,10,20,00,45,5.90
2018,10,20,00,46,6.00
2018,10,20,00,47,5.90
2018,10,20,00,48,5.90
2018,10,20,00,49,5.90
2018,10,20,00,50,5.90
2018,10,20,00,51,5.90
2018,10,20,00,52,5.90
2018,10,20,00,53,5.80
2018,10,20,00,54,5.80
2018,10,20,00,55,5.80
2018,10,20,00,56,5.80
2018,10,20,00,57,5.80
2018,10,20,00,58,5.80
2018,10,20,00,59,5.80
2018,10,20,01,00,5.80
2018,10,20,01,01,5.80
2018,10,20,01,02,5.80
2018,10,20,01,03,5.80
2018,10,20,01,04,5.80
2018,10,20,01,05,5.80
2018,10,20,01,06,5.80
2018,10,20,01,07,5.80
2018,10,20,01,08,5.70
2018,10,20,01,09,5.70
2018,10,20,01,10,5.70
2018,10,20,01,11,5.80
2018,10,20,01,12,5.80
2018,10,20,01,13,5.80
2018,10,20,01,14,5.80
2018,10,20,01,15,5.80
2018,10,20,01,16,5.80
2018,10,20,01,17,5.80
2018,10,20,01,18,5.80
2018,10,20,01,19,5.90
2018,10,20,01,20,5.90
2018,10,20,01,21,6.00
2018,10,20,01,22,6.10
2018,10,20,01,23,6.10
2018,10,20,01,24,6.10
2018,10,20,01,25,6.10
2018,10,20,01,26,6.00
2018,10,20,01,27,5.90
2018,10,20,01,28,5.90
2018,10,20,01,29,5.80
2018,10,20,01,30,5.80
2018,10,20,01,31,5.70
2018,10,20,01,32,5.70
2018,10,20,01,33,5.70
2018,10,20,01,34,5.80
2018,10,20,01,35,5.90
2018,10,20,01,36,6.00
2018,10,20,01,37,6.10
2018,10,20,01,38,6.10
2018,10,20,01,39,6.00
2018,10,20,01,40,5.90
2018,10,20,01,41,5.90
2018,10,20,01,42,5.80
2018,10,20,01,43,5.80
2018,10,20,01,44,5.80
2018,10,20,01,45,5.70
2018,10,20,01,46,5.70
2018,10,20,01,47,5.60
2018,10,20,01,48,5.60
2018,10,20,01,49,5.60
2018,10,20,01,50,5.60
2018,10,20,01,51,5.60
2018,10,20,01,52,5.60
2018,10,20,01,53,5.60
2018,10,20,01,54,5.60
2018,10,20,01,55,5.60
2018,10,20,01,56,5.60
2018,10,20,01,57,5.60
2018,10,20,01,58,5.50
2018,10,20,01,59,5.50
2018,10,20,02,00,5.50
2018,10,20,02,01,5.50
2018,10,20,02,02,5.50
2018,10,20,02,03,5.50
2018,10,20,02,04,5.40
2018,10,20,02,05,5.40
2018,10,20,02,06,5.40
2018,10,20,02,07,5.40
2018,10,20,02,08,5.40
2018,10,20,02,09,5.30
2018,10,20,02,10,5.40
2018,10,20,02,11,5.40
2018,10,20,02,12,5.40
2018,10,20,02,13,5.40
2018,10,20,02,14,5.40
2018,10,20,02,15,5.40
2018,10,20,02,16,5.40
2018,10,20,02,17,5.50
2018,10,20,02,18,5.50
2018,10,20,02,19,5.50
2018,10,20,02,20,5.50
2018,10,20,02,21,5.50
2018,10,20,02,22,5.50
2018,10,20,02,23,5.40
2018,10,20,02,24,5.40
2018,10,20,02,25,5.40
2018,10,20,02,26,5.40
2018,10,20,02,27,5.30
2018,10,20,02,28,5.30
2018,10,20,02,29,5.30
2018,10,20,02,30,5.30
2018,10,20,02,31,5.20
2018,10,20,02,32,5.20
2018,10,20,02,33,5.20
2018,10,20,02,34,5.10
2018,10,20,02,35,5.10
2018,10,20,02,36,5.10
2018,10,20,02,37,5.10
2018,10,20,02,38,5.10
2018,10,20,02,39,5.10
2018,10,20,02,40,5.10
2018,10,20,02,41,5.10
2018,10,20,02,42,5.10
2018,10,20,02,43,5.10
2018,10,20,02,44,5.10
2018,10,20,02,45,5.10
2018,10,20,02,46,5.10
2018,10,20,02,47,5.10
2018,10,20,02,48,5.10
2018,10,20,02,49,5.10
2018,10,20,02,50,5.10
2018,10,20,02,51,5.10
2018,10,20,02,52,5.00
2018,10,20,02,53,5.00
2018,10,20,02,54,5.00
2018,10,20,02,55,5.00
2018,10,20,02,56,5.00
2018,10,20,02,57,5.00
2018,10,20,02,58,5.00
2018,10,20,02,59,4.90
2018,10,20,03,00,4.90
2018,10,20,03,01,4.90
2018,10,20,03,02,4.90
2018,10,20,03,03,4.90
2018,10,20,03,04,4.90
2018,10,20,03,05,4.90
2018,10,20,03,06,4.90
2018,10,20,03,07,4.90
2018,10,20,03,08,4.90
2018,10,20,03,09,4.80
2018,10,20,03,10,4.90
2018,10,20,03,11,4.80
2018,10,20,03,12,4.90
2018,10,20,03,13,4.80
2018,10,20,03,14,4.80
2018,10,20,03,15,4.80
2018,10,20,03,16,4.90
2018,10,20,03,17,4.80
2018,10,20,03,18,4.80
2018,10,20,03,19,4.80
2018,10,20,03,20,4.80
2018,10,20,03,21,4.80
2018,10,20,03,22,4.70
2018,10,20,03,23,4.70
2018,10,20,03,24,4.70
2018,10,20,03,25,4.60
2018,10,20,03,26,4.60
2018,10,20,03,27,4.60
2018,10,20,03,28,4.50
2018,10,20,03,29,4.50
2018,10,20,03,30,4.40
2018,10,20,03,31,4.40
2018,10,20,03,32,4.30
2018,10,20,03,33,4.30
2018,10,20,03,34,4.30
2018,10,20,03,35,4.20
2018,10,20,03,36,4.20
2018,10,20,03,37,4.20
2018,10,20,03,38,4.20
2018,10,20,03,39,4.20
2018,10,20,03,40,4.20
2018,10,20,03,41,4.20
2018,10,20,03,42,4.20
2018,10,20,03,43,4.20
2018,10,20,03,44,4.20
2018,10,20,03,45,4.30
2018,10,20,03,46,4.30
2018,10,20,03,47,4.30
2018,10,20,03,48,4.30
2018,10,20,03,49,4.20
2018,10,20,03,50,4.20
2018,10,20,03,51,4.30
2018,10,20,03,52,4.30
2018,10,20,03,53,4.30
2018,10,20,03,54,4.30
2018,10,20,03,55,4.30
2018,10,20,03,56,4.30
2018,10,20,03,57,4.30
2018,10,20,03,58,4.30
2018,10,20,03,59,4.30
2018,10,20,04,00,4.30
2018,10,20,04,01,4.30
2018,10,20,04,02,4.30
2018,10,20,04,03,4.30
2018,10,20,04,04,4.30
2018,10,20,04,05,4.30
2018,10,20,04,06,4.30
2018,10,20,04,07,4.30
2018,10,20,04,08,4.30
2018,10,20,04,09,4.30
2018,10,20,04,10,4.30
2018,10,20,04,11,4.30
2018,10,20,04,12,4.30
2018,10,20,04,13,4.30
2018,10,20,04,14,4.30
2018,10,20,04,15,4.30
2018,10,20,04,16,4.30
2018,10,20,04,17,4.30
2018,10,20,04,18,4.30
2018,10,20,04,19,4.30
2018,10,20,04,20,4.30
2018,10,20,04,21,4.30
2018,10,20,04,22,4.30
2018,10,20,04,23,4.20
2018,10,20,04,24,4.20
2018,10,20,04,25,4.20
2018,10,20,04,26,4.20
2018,10,20,04,27,4.20
2018,10,20,04,28,4.10
2018,10,20,04,29,4.10
2018,10,20,04,30,4.10
2018,10,20,04,31,4.10
2018,10,20,04,32,4.10
2018,10,20,04,33,4.00
2018,10,20,04,34,4.00
2018,10,20,04,35,3.90
2018,10,20,04,36,3.90
2018,10,20,04,37,3.90
2018,10,20,04,38,3.90
2018,10,20,04,39,3.80
2018,10,20,04,40,3.80
2018,10,20,04,41,3.80
2018,10,20,04,42,3.80
2018,10,20,04,43,3.80
2018,10,20,04,44,3.70
2018,10,20,04,45,3.70
2018,10,20,04,46,3.70
2018,10,20,04,47,3.70
2018,10,20,04,48,3.70
2018,10,20,04,49,3.70
2018,10,20,04,50,3.70
2018,10,20,04,51,3.70
2018,10,20,04,52,3.70
2018,10,20,04,53,3.70
2018,10,20,04,54,3.70
2018,10,20,04,55,3.70
2018,10,20,04,56,3.70
2018,10,20,04,57,3.70
2018,10,20,04,58,3.70
2018,10,20,04,59,3.70
2018,10,20,05,00,3.70
2018,10,20,05,01,3.80
2018,10,20,05,02,3.80
2018,10,20,05,03,3.80
2018,10,20,05,04,3.80
2018,10,20,05,05,3.80
2018,10,20,05,06,3.80
2018,10,20,05,07,3.80
2018,10,20,05,08,3.80
2018,10,20,05,09,3.80
2018,10,20,05,10,3.70
2018,10,20,05,11,3.70
2018,10,20,05,12,3.70
2018,10,20,05,13,3.70
2018,10,20,05,14,3.70
2018,10,20,05,15,3.70
2018,10,20,05,16,3.70
2018,10,20,05,17,3.70
2018,10,20,05,18,3.60
2018,10,20,05,19,3.60
2018,10,20,05,20,3.60
2018,10,20,05,21,3.60
2018,10,20,05,22,3.60
2018,10,20,05,23,3.60
2018,10,20,05,24,3.50
2018,10,20,05,25,3.50
2018,10,20,05,26,3.50
2018,10,20,05,27,3.50
2018,10,20,05,28,3.50
2018,10,20,05,29,3.50
2018,10,20,05,30,3.50
2018,10,20,05,31,3.50
2018,10,20,05,32,3.40
2018,10,20,05,33,3.40
2018,10,20,05,34,3.40
2018,10,20,05,35,3.40
2018,10,20,05,36,3.40
2018,10,20,05,37,3.40
2018,10,20,05,38,3.40
2018,10,20,05,39,3.40
2018,10,20,05,40,3.40
2018,10,20,05,41,3.40
2018,10,20,05,42,3.40
2018,10,20,05,43,3.40
2018,10,20,05,44,3.40
2018,10,20,05,45,3.40
2018,10,20,05,46,3.40
2018,10,20,05,47,3.40
2018,10,20,05,48,3.40
2018,10,20,05,49,3.40
2018,10,20,05,50,3.40
2018,10,20,05,51,3.40
2018,10,20,05,52,3.40
2018,10,20,05,53,3.40
2018,10,20,05,54,3.40
2018,10,20,05,55,3.50
2018,10,20,05,56,3.50
2018,10,20,05,57,3.50
2018,10,20,05,58,3.50
2018,10,20,05,59,3.60
2018,10,20,06,00,3.60
2018,10,20,06,01,3.60
2018,10,20,06,02,3.60
2018,10,20,06,03,3.60
2018,10,20,06,04,3.50
2018,10,20,06,05,3.60
2018,10,20,06,06,3.60
2018,10,20,06,07,3.60
2018,10,20,06,08,3.60
2018,10,20,06,09,3.60
2018,10,20,06,10,3.60
2018,10,20,06,11,3.60
2018,10,20,06,12,3.60
2018,10,20,06,13,3.50
2018,10,20,06,14,3.50
2018,10,20,06,15,3.50
2018,10,20,06,16,3.50
2018,10,20,06,17,3.50
2018,10,20,06,18,3.40
2018,10,20,06,19,3.40
2018,10,20,06,20,3.40
2018,10,20,06,21,3.40
2018,10,20,06,22,3.30
2018,10,20,06,23,3.30
2018,10,20,06,24,3.30
2018,10,20,06,25,3.30
2018,10,20,06,26,3.30
2018,10,20,06,27,3.20
2018,10,20,06,28,3.20
2018,10,20,06,29,3.20
2018,10,20,06,30,3.10
2018,10,20,06,31,3.10
2018,10,20,06,32,3.10
2018,10,20,06,33,3.10
2018,10,20,06,34,3.10
2018,10,20,06,35,3.10
2018,10,20,06,36,3.10
2018,10,20,06,37,3.10
2018,10,20,06,38,3.20
2018,10,20,06,39,3.20
2018,10,20,06,40,3.30
2018,10,20,06,41,3.30
2018,10,20,06,42,3.30
2018,10,20,06,43,3.40
2018,10,20,06,44,3.40
2018,10,20,06,45,3.40
2018,10,20,06,46,3.50
2018,10,20,06,47,3.50
2018,10,20,06,48,3.50
2018,10,20,06,49,3.50
2018,10,20,06,50,3.50
2018,10,20,06,51,3.60
2018,10,20,06,52,3.60
2018,10,20,06,53,3.60
2018,10,20,06,54,3.60
2018,10,20,06,55,3.60
2018,10,20,06,56,3.60
2018,10,20,06,57,3.60
2018,10,20,06,58,3.70
2018,10,20,06,59,3.70
2018,10,20,07,00,3.70
2018,10,20,07,01,3.80
2018,10,20,07,02,3.80
2018,10,20,07,03,3.80
2018,10,20,07,04,3.90
2018,10,20,07,05,3.90
2018,10,20,07,06,4.00
2018,10,20,07,07,4.00
2018,10,20,07,08,4.10
2018,10,20,07,09,4.10
2018,10,20,07,10,4.10
2018,10,20,07,11,4.10
2018,10,20,07,12,4.10
2018,10,20,07,13,4.20
2018,10,20,07,14,4.20
2018,10,20,07,15,4.20
2018,10,20,07,16,4.20
2018,10,20,07,17,4.20
2018,10,20,07,18,4.20
2018,10,20,07,19,4.20
2018,10,20,07,20,4.20
2018,10,20,07,21,4.20
2018,10,20,07,22,4.20
2018,10,20,07,23,4.20
2018,10,20,07,24,4.20
2018,10,20,07,25,4.20
2018,10,20,07,26,4.20
2018,10,20,07,27,4.20
2018,10,20,07,28,4.20
2018,10,20,07,29,4.20
2018,10,20,07,30,4.20
2018,10,20,07,31,4.20
2018,10,20,07,32,4.30
2018,10,20,07,33,4.30
2018,10,20,07,34,4.30
2018,10,20,07,35,4.30
2018,10,20,07,36,4.30
2018,10,20,07,37,4.30
2018,10,20,07,38,4.30
2018,10,20,07,39,4.30
2018,10,20,07,40,4.40
2018,10,20,07,41,4.40
2018,10,20,07,42,4.40
2018,10,20,07,43,4.40
2018,10,20,07,44,4.40
2018,10,20,07,45,4.50
2018,10,20,07,46,4.50
2018,10,20,07,47,4.50
2018,10,20,07,48,4.50
2018,10,20,07,49,4.60
2018,10,20,07,50,4.60
2018,10,20,07,51,4.60
2018,10,20,07,52,4.60
2018,10,20,07,53,4.60
2018,10,20,07,54,4.60
2018,10,20,07,55,4.60
2018,10,20,07,56,4.70
2018,10,20,07,57,4.70
2018,10,20,07,58,4.70
2018,10,20,07,59,4.70
2018,10,20,08,00,4.70
2018,10,20,08,01,4.70
2018,10,20,08,02,4.60
2018,10,20,08,03,4.60
2018,10,20,08,04,4.60
2018,10,20,08,05,4.60
2018,10,20,08,06,4.60
2018,10,20,08,07,4.60
2018,10,20,08,08,4.60
2018,10,20,08,09,4.60
2018,10,20,08,10,4.60
2018,10,20,08,11,4.60
2018,10,20,08,12,4.60
2018,10,20,08,13,4.60
2018,10,20,08,14,4.60
2018,10,20,08,15,4.70
2018,10,20,08,16,4.70
2018,10,20,08,17,4.70
2018,10,20,08,18,4.70
2018,10,20,08,19,4.70
2018,10,20,08,20,4.70
2018,10,20,08,21,4.70
2018,10,20,08,22,4.70
2018,10,20,08,23,4.70
2018,10,20,08,24,4.70
2018,10,20,08,25,4.70
2018,10,20,08,26,4.70
2018,10,20,08,27,4.70
2018,10,20,08,28,4.70
2018,10,20,08,29,4.70
2018,10,20,08,30,4.70
2018,10,20,08,31,4.70
2018,10,20,08,32,4.70
2018,10,20,08,33,4.70
2018,10,20,08,34,4.70
2018,10,20,08,35,4.60
2018,10,20,08,36,4.60
2018,10,20,08,37,4.60
2018,10,20,08,38,4.60
2018,10,20,08,39,4.60
2018,10,20,08,40,4.60
2018,10,20,08,41,4.50
2018,10,20,08,42,4.50
2018,10,20,08,43,4.50
2018,10,20,08,44,4.50
2018,10,20,08,45,4.60
2018,10,20,08,46,4.60
2018,10,20,08,47,4.60
2018,10,20,08,48,4.60
2018,10,20,08,49,4.70
2018,10,20,08,50,4.70
2018,10,20,08,51,4.70
2018,10,20,08,52,4.80
2018,10,20,08,53,4.80
2018,10,20,08,54,4.80
2018,10,20,08,55,4.80
2018,10,20,08,56,4.80
2018,10,20,08,57,4.80
2018,10,20,08,58,4.90
2018,10,20,08,59,4.90
2018,10,20,09,00,4.90
2018,10,20,09,01,4.90
2018,10,20,09,02,5.00
2018,10,20,09,03,5.00
2018,10,20,09,04,5.10
2018,10,20,09,05,5.10
2018,10,20,09,06,5.20
2018,10,20,09,07,5.30
2018,10,20,09,08,5.30
2018,10,20,09,09,5.30
2018,10,20,09,10,5.40
2018,10,20,09,11,5.40
2018,10,20,09,12,5.50
2018,10,20,09,13,5.60
2018,10,20,09,14,5.60
2018,10,20,09,15,5.70
2018,10,20,09,16,5.70
2018,10,20,09,17,5.80
2018,10,20,09,18,5.80
2018,10,20,09,19,5.90
2018,10,20,09,20,5.90
2018,10,20,09,21,5.90
2018,10,20,09,22,6.00
2018,10,20,09,23,6.10
2018,10,20,09,24,6.20
2018,10,20,09,25,6.30
2018,10,20,09,26,6.30
2018,10,20,09,27,6.40
2018,10,20,09,28,6.40
2018,10,20,09,29,6.50
2018,10,20,09,30,6.60
2018,10,20,09,31,6.60
2018,10,20,09,32,6.70
2018,10,20,09,33,6.70
2018,10,20,09,34,6.80
2018,10,20,09,35,6.80
2018,10,20,09,36,6.90
2018,10,20,09,37,7.00
2018,10,20,09,38,7.10
2018,10,20,09,39,7.20
2018,10,20,09,40,7.30
2018,10,20,09,41,7.30
2018,10,20,09,42,7.50
2018,10,20,09,43,7.50
2018,10,20,09,44,7.60
2018,10,20,09,45,7.70
2018,10,20,09,46,7.80
2018,10,20,09,47,7.90
2018,10,20,09,48,8.00
2018,10,20,09,49,8.20
2018,10,20,09,50,8.30
2018,10,20,09,51,8.30
2018,10,20,09,52,8.40
2018,10,20,09,53,8.50
2018,10,20,09,54,8.60
2018,10,20,09,55,8.60
2018,10,20,09,56,8.70
2018,10,20,09,57,8.70
2018,10,20,09,58,8.80
2018,10,20,09,59,8.90
2018,10,20,10,00,8.90
2018,10,20,10,01,8.90
2018,10,20,10,02,9.00
2018,10,20,10,03,9.10
2018,10,20,10,04,9.10
2018,10,20,10,05,9.10
2018,10,20,10,06,9.20
2018,10,20,10,07,9.20
2018,10,20,10,08,9.20
2018,10,20,10,09,9.30
2018,10,20,10,10,9.30
2018,10,20,10,11,9.30
2018,10,20,10,12,9.40
2018,10,20,10,13,9.40
2018,10,20,10,14,9.40
2018,10,20,10,15,9.50
2018,10,20,10,16,9.50
2018,10,20,10,17,9.50
2018,10,20,10,18,9.50
2018,10,20,10,19,9.50
2018,10,20,10,20,9.50
2018,10,20,10,21,9.50
2018,10,20,10,22,9.50
2018,10,20,10,23,9.60
2018,10,20,10,24,9.60
2018,10,20,10,25,9.60
2018,10,20,10,26,9.60
2018,10,20,10,27,9.60
2018,10,20,10,28,9.60
2018,10,20,10,29,9.60
2018,10,20,10,30,9.60
2018,10,20,10,31,9.60
2018,10,20,10,32,9.60
2018,10,20,10,33,9.60
2018,10,20,10,34,9.70
2018,10,20,10,35,9.70
2018,10,20,10,36,9.70
2018,10,20,10,37,9.70
2018,10,20,10,38,9.70
2018,10,20,10,39,9.70
2018,10,20,10,40,9.80
2018,10,20,10,41,9.80
2018,10,20,10,42,9.80
2018,10,20,10,43,9.80
2018,10,20,10,44,9.90
2018,10,20,10,45,9.90
2018,10,20,10,46,9.90
2018,10,20,10,47,9.80
2018,10,20,10,48,9.80
2018,10,20,10,49,9.90
2018,10,20,10,50,9.90
2018,10,20,10,51,9.90
2018,10,20,10,52,9.90
2018,10,20,10,53,9.90
2018,10,20,10,54,9.90
2018,10,20,10,55,10.00
2018,10,20,10,56,10.00
2018,10,20,10,57,10.10
2018,10,20,10,58,10.10
2018,10,20,10,59,10.10
2018,10,20,11,00,10.10
2018,10,20,11,01,10.10
2018,10,20,11,02,10.20
2018,10,20,11,03,10.20
2018,10,20,11,04,10.20
2018,10,20,11,05,10.20
2018,10,20,11,06,10.20
2018,10,20,11,07,10.30
2018,10,20,11,08,10.30
2018,10,20,11,09,10.30
2018,10,20,11,10,10.40
2018,10,20,11,11,10.40
2018,10,20,11,12,10.40
2018,10,20,11,13,10.40
2018,10,20,11,14,10.50
2018,10,20,11,15,10.50
2018,10,20,11,16,10.60
2018,10,20,11,17,10.60
2018,10,20,11,18,10.60
2018,10,20,11,19,10.60
2018,10,20,11,20,10.70
2018,10,20,11,21,10.70
2018,10,20,11,22,10.70
2018,10,20,11,23,10.70
2018,10,20,11,24,10.70
2018,10,20,11,25,10.70
2018,10,20,11,26,10.80
2018,10,20,11,27,10.80
2018,10,20,11,28,10.80
2018,10,20,11,29,10.90
2018,10,20,11,30,11.00
2018,10,20,11,31,11.00
2018,10,20,11,32,11.10
2018,10,20,11,33,11.10
2018,10,20,11,34,11.10
2018,10,20,11,35,11.20
2018,10,20,11,36,11.20
2018,10,20,11,37,11.30
2018,10,20,11,38,11.30
2018,10,20,11,39,11.30
2018,10,20,11,40,11.40
2018,10,20,11,41,11.40
2018,10,20,11,42,11.50
2018,10,20,11,43,11.50
2018,10,20,11,44,11.60
2018,10,20,11,45,11.60
2018,10,20,11,46,11.60
2018,10,20,11,47,11.70
2018,10,20,11,48,11.70
2018,10,20,11,49,11.80
2018,10,20,11,50,11.90
2018,10,20,11,51,11.90
2018,10,20,11,52,11.90
2018,10,20,11,53,11.80
2018,10,20,11,54,11.70
2018,10,20,11,55,11.50
2018,10,20,11,56,11.50
2018,10,20,11,57,11.40
2018,10,20,11,58,11.40
2018,10,20,11,59,11.30
2018,10,20,12,00,11.30
2018,10,20,12,01,11.30
2018,10,20,12,02,11.30
2018,10,20,12,03,11.30
2018,10,20,12,04,11.30
2018,10,20,12,05,11.40
2018,10,20,12,06,11.50
2018,10,20,12,07,11.70
2018,10,20,12,08,11.80
2018,10,20,12,09,11.80
2018,10,20,12,10,11.90
2018,10,20,12,11,11.90
2018,10,20,12,12,11.90
2018,10,20,12,13,11.90
2018,10,20,12,14,11.80
2018,10,20,12,15,11.80
2018,10,20,12,16,11.80
2018,10,20,12,17,11.80
2018,10,20,12,18,11.90
2018,10,20,12,19,12.00
2018,10,20,12,20,12.00
2018,10,20,12,21,12.20
2018,10,20,12,22,12.20
2018,10,20,12,23,12.30
2018,10,20,12,24,12.30
2018,10,20,12,25,12.40
2018,10,20,12,26,12.40
2018,10,20,12,27,12.50
2018,10,20,12,28,12.60
2018,10,20,12,29,12.60
2018,10,20,12,30,12.60
2018,10,20,12,31,12.60
2018,10,20,12,32,12.70
2018,10,20,12,33,12.80
2018,10,20,12,34,12.90
2018,10,20,12,35,13.00
2018,10,20,12,36,13.10
2018,10,20,12,37,13.20
2018,10,20,12,38,13.30
2018,10,20,12,39,13.30
2018,10,20,12,40,13.30
2018,10,20,12,41,13.40
2018,10,20,12,42,13.30
2018,10,20,12,43,13.30
2018,10,20,12,44,13.30
2018,10,20,12,45,13.30
2018,10,20,12,46,13.30
2018,10,20,12,47,13.30
2018,10,20,12,48,13.40
2018,10,20,12,49,13.40
2018,10,20,12,50,13.40
2018,10,20,12,51,13.40
2018,10,20,12,52,13.50
2018,10,20,12,53,13.50
2018,10,20,12,54,13.50
2018,10,20,12,55,13.60
2018,10,20,12,56,13.70
2018,10,20,12,57,13.70
2018,10,20,12,58,13.70
2018,10,20,12,59,13.60
2018,10,20,13,00,13.50
2018,10,20,13,01,13.50
2018,10,20,13,02,13.40
2018,10,20,13,03,13.40
2018,10,20,13,04,13.40
2018,10,20,13,05,13.40
2018,10,20,13,06,13.40
2018,10,20,13,07,13.50
2018,10,20,13,08,13.70
2018,10,20,13,09,13.80
2018,10,20,13,10,13.90
2018,10,20,13,11,13.90
2018,10,20,13,12,14.00
2018,10,20,13,13,13.90
2018,10,20,13,14,13.90
2018,10,20,13,15,14.00
2018,10,20,13,16,14.00
2018,10,20,13,17,14.00
2018,10,20,13,18,13.90
2018,10,20,13,19,13.90
2018,10,20,13,20,13.80
2018,10,20,13,21,13.70
2018,10,20,13,22,13.70
2018,10,20,13,23,13.60
2018,10,20,13,24,13.70
2018,10,20,13,25,13.70
2018,10,20,13,26,13.70
2018,10,20,13,27,13.70
2018,10,20,13,28,13.80
2018,10,20,13,29,13.90
2018,10,20,13,30,14.00
2018,10,20,13,31,14.10
2018,10,20,13,32,14.20
2018,10,20,13,33,14.20
2018,10,20,13,34,14.20
2018,10,20,13,35,14.20
2018,10,20,13,36,14.30
2018,10,20,13,37,14.40
2018,10,20,13,38,14.50
2018,10,20,13,39,14.50
2018,10,20,13,40,14.50
2018,10,20,13,41,14.40
2018,10,20,13,42,14.50
2018,10,20,13,43,14.50
2018,10,20,13,44,14.60
2018,10,20,13,45,14.70
2018,10,20,13,46,14.70
2018,10,20,13,47,14.80
2018,10,20,13,48,14.90
2018,10,20,13,49,14.90
2018,10,20,13,50,15.00
2018,10,20,13,51,15.10
2018,10,20,13,52,15.20
2018,10,20,13,53,15.10
2018,10,20,13,54,15.10
2018,10,20,13,55,15.10
2018,10,20,13,56,15.20
2018,10,20,13,57,15.30
2018,10,20,13,58,15.20
2018,10,20,13,59,15.20
2018,10,20,14,00,15.10
2018,10,20,14,01,15.10
2018,10,20,14,02,15.10
2018,10,20,14,03,15.20
2018,10,20,14,04,15.30
2018,10,20,14,05,15.40
2018,10,20,14,06,15.50
2018,10,20,14,07,15.60
2018,10,20,14,08,15.60
2018,10,20,14,09,15.70
2018,10,20,14,10,15.70
2018,10,20,14,11,15.80
2018,10,20,14,12,15.70
2018,10,20,14,13,15.70
2018,10,20,14,14,15.60
2018,10,20,14,15,15.50
2018,10,20,14,16,15.50
2018,10,20,14,17,15.60
2018,10,20,14,18,15.60
2018,10,20,14,19,15.60
2018,10,20,14,20,15.50
2018,10,20,14,21,15.40
2018,10,20,14,22,15.40
2018,10,20,14,23,15.40
2018,10,20,14,24,15.30
2018,10,20,14,25,15.30
2018,10,20,14,26,15.40
2018,10,20,14,27,15.30
2018,10,20,14,28,15.30
2018,10,20,14,29,15.30
2018,10,20,14,30,15.30
2018,10,20,14,31,15.20
2018,10,20,14,32,15.10
2018,10,20,14,33,15.10
2018,10,20,14,34,15.10
2018,10,20,14,35,15.20
2018,10,20,14,36,15.20
2018,10,20,14,37,15.10
2018,10,20,14,38,15.10
2018,10,20,14,39,15.10
2018,10,20,14,40,15.10
2018,10,20,14,41,15.20
2018,10,20,14,42,15.20
2018,10,20,14,43,15.30
2018,10,20,14,44,15.30
2018,10,20,14,45,15.40
2018,10,20,14,46,15.40
2018,10,20,14,47,15.30
2018,10,20,14,48,15.20
2018,10,20,14,49,15.20
2018,10,20,14,50,15.20
2018,10,20,14,51,15.10
2018,10,20,14,52,15.10
2018,10,20,14,53,15.10
2018,10,20,14,54,15.10
2018,10,20,14,55,15.10
2018,10,20,14,56,15.10
2018,10,20,14,57,15.10
2018,10,20,14,58,15.00
2018,10,20,14,59,15.00
2018,10,20,15,00,15.00
2018,10,20,15,01,14.90
2018,10,20,15,02,15.00
2018,10,20,15,03,15.10
2018,10,20,15,04,15.10
2018,10,20,15,05,15.10
2018,10,20,15,06,15.20
2018,10,20,15,07,15.20
2018,10,20,15,08,15.20
2018,10,20,15,09,15.30
2018,10,20,15,10,15.20
2018,10,20,15,11,15.20
2018,10,20,15,12,15.30
2018,10,20,15,13,15.40
2018,10,20,15,14,15.40
2018,10,20,15,15,15.50
2018,10,20,15,16,15.50
2018,10,20,15,17,15.60
2018,10,20,15,18,15.50
2018,10,20,15,19,15.50
2018,10,20,15,20,15.40
2018,10,20,15,21,15.40
2018,10,20,15,22,15.40
2018,10,20,15,23,15.40
2018,10,20,15,24,15.30
2018,10,20,15,25,15.40
2018,10,20,15,26,15.40
2018,10,20,15,27,15.40
2018,10,20,15,28,15.50
2018,10,20,15,29,15.50
2018,10,20,15,30,15.60
2018,10,20,15,31,15.60
2018,10,20,15,32,15.70
2018,10,20,15,33,15.70
2018,10,20,15,34,15.70
2018,10,20,15,35,15.70
2018,10,20,15,36,15.70
2018,10,20,15,37,15.70
2018,10,20,15,38,15.80
2018,10,20,15,39,15.80
2018,10,20,15,40,15.70
2018,10,20,15,41,15.70
2018,10,20,15,42,15.70
2018,10,20,15,43,15.80
2018,10,20,15,44,15.70
2018,10,20,15,45,15.60
2018,10,20,15,46,15.50
2018,10,20,15,47,15.40
2018,10,20,15,48,15.50
2018,10,20,15,49,15.50
2018,10,20,15,50,15.60
2018,10,20,15,51,15.60
2018,10,20,15,52,15.70
2018,10,20,15,53,15.70
2018,10,20,15,54,15.80
2018,10,20,15,55,15.80
2018,10,20,15,56,15.80
2018,10,20,15,57,15.80
2018,10,20,15,58,15.80
2018,10,20,15,59,15.90
2018,10,20,16,00,16.00
2018,10,20,16,01,16.00
2018,10,20,16,02,15.90
2018,10,20,16,03,15.80
2018,10,20,16,04,15.70
2018,10,20,16,05,15.60
2018,10,20,16,06,15.50
2018,10,20,16,07,15.40
2018,10,20,16,08,15.40
2018,10,20,16,09,15.40
2018,10,20,16,10,15.50
2018,10,20,16,11,15.50
2018,10,20,16,12,15.50
2018,10,20,16,13,15.50
2018,10,20,16,14,15.50
2018,10,20,16,15,15.60
2018,10,20,16,16,15.60
2018,10,20,16,17,15.60
2018,10,20,16,18,15.60
2018,10,20,16,19,15.60
2018,10,20,16,20,15.60
2018,10,20,16,21,15.70
2018,10,20,16,22,15.70
2018,10,20,16,23,15.70
2018,10,20,16,24,15.70
2018,10,20,16,25,15.70
2018,10,20,16,26,15.70
2018,10,20,16,27,15.70
2018,10,20,16,28,15.70
2018,10,20,16,29,15.70
2018,10,20,16,30,15.70
2018,10,20,16,31,15.70
2018,10,20,16,32,15.80
2018,10,20,16,33,15.80
2018,10,20,16,34,15.80
2018,10,20,16,35,15.80
2018,10,20,16,36,15.70
2018,10,20,16,37,15.70
2018,10,20,16,38,15.70
2018,10,20,16,39,15.70
2018,10,20,16,40,15.80
2018,10,20,16,41,15.80
2018,10,20,16,42,15.90
2018,10,20,16,43,16.00
2018,10,20,16,44,16.00
2018,10,20,16,45,16.00
2018,10,20,16,46,16.00
2018,10,20,16,47,16.00
2018,10,20,16,48,15.90
2018,10,20,16,49,15.90
2018,10,20,16,50,15.90
2018,10,20,16,51,15.80
2018,10,20,16,52,15.60
2018,10,20,16,53,15.40
2018,10,20,16,54,15.30
2018,10,20,16,55,15.00
2018,10,20,16,56,14.80
2018,10,20,16,57,14.50
2018,10,20,16,58,14.40
2018,10,20,16,59,14.30
2018,10,20,17,00,14.20
2018,10,20,17,01,14.00
2018,10,20,17,02,13.90
2018,10,20,17,03,13.80
2018,10,20,17,04,13.70
2018,10,20,17,05,13.60
2018,10,20,17,06,13.50
2018,10,20,17,07,13.40
2018,10,20,17,08,13.40
2018,10,20,17,09,13.40
2018,10,20,17,10,13.30
2018,10,20,17,11,13.20
2018,10,20,17,12,13.10
2018,10,20,17,13,13.00
2018,10,20,17,14,12.90
2018,10,20,17,15,12.80
2018,10,20,17,16,12.80
2018,10,20,17,17,12.70
2018,10,20,17,18,12.70
2018,10,20,17,19,12.70
2018,10,20,17,20,12.70
2018,10,20,17,21,12.70
2018,10,20,17,22,12.70
2018,10,20,17,23,12.70
2018,10,20,17,24,12.70
2018,10,20,17,25,12.70
2018,10,20,17,26,12.70
2018,10,20,17,27,12.60
2018,10,20,17,28,12.60
2018,10,20,17,29,12.60
2018,10,20,17,30,12.60
2018,10,20,17,31,12.50
2018,10,20,17,32,12.40
2018,10,20,17,33,12.40
2018,10,20,17,34,12.40
2018,10,20,17,35,12.30
2018,10,20,17,36,12.30
2018,10,20,17,37,12.30
2018,10,20,17,38,12.20
2018,10,20,17,39,12.20
2018,10,20,17,40,12.10
2018,10,20,17,41,12.10
2018,10,20,17,42,12.00
2018,10,20,17,43,12.00
2018,10,20,17,44,11.90
2018,10,20,17,45,11.90
2018,10,20,17,46,11.80
2018,10,20,17,47,11.80